This demonstration page uses our WeatherBlox Daily Observations layout. Learn more.

Left ArrowRight Arrow

Hourly Observations for May 6, 2015

Temp ( °F °C ) Dew Point ( °F °C ) Humidity (%) Winds ( mph kmh ) Pressure ( in mb ) Visibility ( mi km ) Precip ( " mm )
12:53 am 00:53 Clear 59 15 56 13.3 90 90 Calm 30.20 1023 10 16 0.00 0.00
1:53 am 01:53 Clear 58 14.4 55 12.8 90 90 Calm 30.20 1023 10 16 0.00 0.00
2:53 am 02:53 Clear 56 13.3 55 12.8 97 97 Calm 30.19 1022 9 14 0.00 0.00
3:53 am 03:53 Clear 55 12.8 53 11.7 93 93 Calm 30.20 1023 8 13 0.00 0.00
4:53 am 04:53 Clear 55 12.8 53 11.7 93 93 Calm 30.19 1023 8 13 0.00 0.00
5:53 am 05:53 Clear with Mist and Fog 54 12.2 53 11.7 97 97 Calm 30.19 1023 6 10 0.00 0.00
6:53 am 06:53 Sunny with Mist and Fog 54 12.2 53 11.7 97 97 Calm 30.20 1023 4 6 0.00 0.00
7:07 am 07:07 Sunny with Mist and Fog 54 12.2 54 12.2 100 100 Calm 30.21 1023 3 4 0.00 0.00
7:15 am 07:15 Sunny with Mist and Fog 55 12.8 54 12.2 96 96 Calm 30.21 1023 4 6 0.00 0.00
7:53 am 07:53 Sunny with Mist and Fog 59 15 56 13.3 90 90 Calm 30.21 1023 6 10 0.00 0.00
8:53 am 08:53 Hazy 66 18.9 58 14.4 75 75 Calm 30.22 1024 6 10 0.00 0.00
9:53 am 09:53 Sunny 73 22.8 58 14.4 59 59 Calm 30.22 1023 10 16 0.00 0.00
10:53 am 10:53 Sunny 78 25.6 58 14.4 50 50 Calm 30.21 1023 10 16 0.00 0.00
11:53 am 11:53 Sunny 82 27.8 56 13.3 41 41 VRB 5 7 30.21 1023 10 16 0.00 0.00
12:53 pm 12:53 Sunny 84 28.9 53 11.7 34 34 SSW 8 13 30.19 1022 10 16 0.00 0.00
1:53 pm 13:53 Mostly Sunny 85 29.4 52 11.1 32 32 Calm 30.17 1022 10 16 0.00 0.00
2:53 pm 14:53 Sunny 86 30 51 10.6 30 30 WSW 7 11 30.16 1021 10 16 0.00 0.00
3:53 pm 15:53 Partly Cloudy 85 29.4 52 11.1 32 32 WNW 5 7 30.14 1021 10 16 0.00 0.00
4:53 pm 16:53 Sunny 86 30 51 10.6 30 30 VRB 3 6 30.11 1020 10 16 0.00 0.00
5:53 pm 17:53 Sunny 85 29.4 55 12.8 36 36 NNW 7 11 30.11 1020 10 16 0.00 0.00
6:53 pm 18:53 Sunny 84 28.9 55 12.8 37 37 N 6 9 30.09 1019 10 16 0.00 0.00
7:53 pm 19:53 Sunny 78 25.6 60 15.6 54 54 Calm 30.09 1019 10 16 0.00 0.00
8:53 pm 20:53 Clear 69 20.6 59 15 70 70 Calm 30.09 1019 10 16 0.00 0.00
9:53 pm 21:53 Clear 65 18.3 58 14.4 78 78 Calm 30.10 1019 10 16 0.00 0.00
10:53 pm 22:53 Clear 63 17.2 57 13.9 81 81 Calm 30.12 1020 10 16 0.00 0.00
11:53 pm 23:53 Clear 61 16.1 56 13.3 84 84 Calm 30.12 1020 10 16 0.00 0.00

Powered by AerisWeather